TimeCST,TemperatureF,Dew PointF,Humidity,Sea Level PressureIn,VisibilityMPH,Wind Direction,Wind SpeedMPH,Gust SpeedMPH,PrecipitationIn,Events,Conditions,WindDirDegrees,DateUTC
12:13 AM,8.6,1.4,73,30.19,10.0,NNW,6.9,-,N/A,,Clear,340,2012-11-29 06:13:00
12:34 AM,6.8,1.4,79,30.19,10.0,NNW,8.1,-,N/A,,Scattered Clouds,340,2012-11-29 06:34:00
12:54 AM,6.8,1.4,79,30.20,10.0,NNW,5.8,-,N/A,,Scattered Clouds,340,2012-11-29 06:54:00
1:14 AM,6.8,1.4,79,30.20,10.0,North,8.1,-,N/A,,Overcast,350,2012-11-29 07:14:00
1:34 AM,6.8,1.4,79,30.20,10.0,North,6.9,-,N/A,,Overcast,360,2012-11-29 07:34:00
1:54 AM,6.8,1.4,79,30.20,10.0,North,6.9,-,N/A,,Overcast,360,2012-11-29 07:54:00
2:14 AM,8.6,1.4,73,30.20,10.0,North,9.2,-,N/A,,Overcast,10,2012-11-29 08:14:00
2:34 AM,8.6,3.2,79,30.20,10.0,North,10.4,-,N/A,,Mostly Cloudy,360,2012-11-29 08:34:00
2:54 AM,8.6,3.2,79,30.20,10.0,North,6.9,-,N/A,,Mostly Cloudy,360,2012-11-29 08:54:00
3:14 AM,8.6,3.2,79,30.21,10.0,North,5.8,-,N/A,,Scattered Clouds,360,2012-11-29 09:14:00
3:34 AM,8.6,3.2,79,30.20,10.0,North,8.1,-,N/A,,Scattered Clouds,360,2012-11-29 09:34:00
4:14 AM,8.6,3.2,79,30.21,10.0,North,6.9,-,N/A,,Overcast,360,2012-11-29 10:14:00
4:34 AM,8.6,3.2,79,30.22,10.0,North,6.9,-,N/A,,Overcast,10,2012-11-29 10:34:00
4:54 AM,8.6,5.0,85,30.23,10.0,North,10.4,-,N/A,,Overcast,10,2012-11-29 10:54:00
5:14 AM,10.4,5.0,79,30.22,10.0,NNE,9.2,-,N/A,,Overcast,20,2012-11-29 11:14:00
5:34 AM,10.4,5.0,79,30.23,10.0,NNE,9.2,-,N/A,,Overcast,20,2012-11-29 11:34:00
5:54 AM,10.4,5.0,79,30.22,10.0,North,10.4,-,N/A,,Overcast,10,2012-11-29 11:54:00
6:14 AM,10.4,6.8,85,30.22,10.0,NNE,9.2,-,N/A,,Overcast,20,2012-11-29 12:14:00
6:34 AM,10.4,6.8,85,30.23,10.0,NNE,8.1,-,N/A,,Overcast,20,2012-11-29 12:34:00
6:54 AM,10.4,6.8,85,30.22,10.0,NNE,8.1,-,N/A,,Overcast,20,2012-11-29 12:54:00
7:14 AM,10.4,6.8,85,30.22,10.0,NNE,8.1,-,N/A,,Overcast,30,2012-11-29 13:14:00
7:34 AM,10.4,6.8,85,30.23,10.0,NNE,8.1,-,N/A,,Overcast,30,2012-11-29 13:34:00
7:54 AM,10.4,6.8,85,30.23,10.0,NNE,10.4,-,N/A,,Overcast,30,2012-11-29 13:54:00
8:14 AM,12.2,6.8,79,30.24,10.0,NNE,6.9,-,N/A,,Overcast,30,2012-11-29 14:14:00
8:34 AM,12.2,8.6,85,30.25,10.0,NNE,11.5,-,N/A,,Overcast,30,2012-11-29 14:34:00
8:54 AM,12.2,6.8,79,30.26,10.0,NNE,10.4,-,N/A,,Overcast,30,2012-11-29 14:54:00
9:14 AM,12.2,8.6,85,30.27,10.0,NE,11.5,17.3,N/A,,Overcast,40,2012-11-29 15:14:00
9:34 AM,12.2,8.6,85,30.27,10.0,NE,10.4,16.1,N/A,,Overcast,50,2012-11-29 15:34:00
9:54 AM,12.2,8.6,85,30.27,10.0,ENE,13.8,17.3,N/A,,Mostly Cloudy,60,2012-11-29 15:54:00
10:14 AM,12.2,8.6,85,30.27,10.0,ENE,13.8,-,N/A,,Mostly Cloudy,70,2012-11-29 16:14:00
10:34 AM,12.2,8.6,85,30.27,10.0,ENE,13.8,-,N/A,,Mostly Cloudy,60,2012-11-29 16:34:00
10:54 AM,12.2,8.6,85,30.27,10.0,ENE,12.7,19.6,N/A,,Mostly Cloudy,60,2012-11-29 16:54:00
11:15 AM,14.0,8.6,79,30.27,10.0,ENE,12.7,-,N/A,,Mostly Cloudy,70,2012-11-29 17:15:00
11:34 AM,14.0,6.8,73,30.28,10.0,ENE,11.5,-,N/A,,Overcast,70,2012-11-29 17:34:00
11:54 AM,14.0,8.6,79,30.27,10.0,ENE,11.5,-,N/A,,Overcast,70,2012-11-29 17:54:00
12:15 PM,14.0,6.8,73,30.27,10.0,East,12.7,-,N/A,,Scattered Clouds,80,2012-11-29 18:15:00
12:34 PM,14.0,6.8,73,30.27,10.0,ENE,12.7,-,N/A,,Scattered Clouds,70,2012-11-29 18:34:00
12:54 PM,14.0,6.8,73,30.25,10.0,ENE,15.0,-,N/A,,Mostly Cloudy,60,2012-11-29 18:54:00
1:15 PM,14.0,6.8,73,30.25,10.0,ENE,15.0,-,N/A,,Mostly Cloudy,60,2012-11-29 19:15:00
1:34 PM,14.0,6.8,73,30.25,10.0,ENE,12.7,-,N/A,,Mostly Cloudy,60,2012-11-29 19:34:00
1:54 PM,14.0,6.8,73,30.24,10.0,ENE,13.8,-,N/A,,Scattered Clouds,70,2012-11-29 19:54:00
2:15 PM,14.0,6.8,73,30.25,10.0,ENE,9.2,-,N/A,,Clear,60,2012-11-29 20:15:00
2:34 PM,14.0,6.8,73,30.25,10.0,ENE,11.5,16.1,N/A,,Clear,60,2012-11-29 20:34:00
2:54 PM,14.0,6.8,73,30.25,10.0,ENE,12.7,-,N/A,,Clear,60,2012-11-29 20:54:00
3:15 PM,14.0,8.6,79,30.25,10.0,ENE,10.4,-,N/A,,Clear,60,2012-11-29 21:15:00
3:34 PM,15.8,8.6,73,30.25,10.0,ENE,11.5,-,N/A,,Scattered Clouds,70,2012-11-29 21:34:00
3:54 PM,15.8,8.6,73,30.25,10.0,ENE,11.5,-,N/A,,Mostly Cloudy,70,2012-11-29 21:54:00
4:15 PM,15.8,6.8,68,30.26,10.0,ENE,10.4,-,N/A,,Mostly Cloudy,70,2012-11-29 22:15:00
4:34 PM,15.8,6.8,68,30.26,10.0,ENE,11.5,-,N/A,,Scattered Clouds,70,2012-11-29 22:34:00
4:54 PM,15.8,6.8,68,30.25,10.0,ENE,13.8,18.4,N/A,,Scattered Clouds,70,2012-11-29 22:54:00
5:15 PM,15.8,6.8,68,30.25,10.0,ENE,12.7,-,N/A,,Mostly Cloudy,70,2012-11-29 23:15:00
5:34 PM,15.8,6.8,68,30.25,10.0,ENE,13.8,-,N/A,,Overcast,70,2012-11-29 23:34:00
5:54 PM,15.8,6.8,68,30.25,10.0,ENE,16.1,-,N/A,,Overcast,70,2012-11-29 23:54:00
6:15 PM,15.8,6.8,68,30.24,10.0,ENE,15.0,-,N/A,,Overcast,70,2012-11-30 00:15:00
6:34 PM,15.8,6.8,68,30.25,10.0,ENE,17.3,-,N/A,,Scattered Clouds,60,2012-11-30 00:34:00
6:54 PM,15.8,6.8,68,30.25,10.0,ENE,16.1,-,N/A,,Clear,60,2012-11-30 00:54:00
7:14 PM,15.8,6.8,68,30.25,10.0,ENE,17.3,21.9,N/A,,Clear,70,2012-11-30 01:14:00
7:34 PM,15.8,6.8,68,30.25,10.0,East,15.0,-,N/A,,Clear,80,2012-11-30 01:34:00
7:54 PM,15.8,6.8,68,30.25,10.0,ENE,15.0,18.4,N/A,,Clear,70,2012-11-30 01:54:00
8:14 PM,15.8,6.8,68,30.25,10.0,East,11.5,-,N/A,,Clear,80,2012-11-30 02:14:00
8:34 PM,15.8,6.8,68,30.25,10.0,ENE,13.8,-,N/A,,Scattered Clouds,70,2012-11-30 02:34:00
8:54 PM,15.8,6.8,68,30.26,10.0,East,15.0,-,N/A,,Scattered Clouds,80,2012-11-30 02:54:00
9:14 PM,15.8,6.8,68,30.27,10.0,ENE,11.5,-,N/A,,Mostly Cloudy,70,2012-11-30 03:14:00
9:34 PM,15.8,6.8,68,30.27,10.0,East,10.4,-,N/A,,Overcast,80,2012-11-30 03:34:00
9:54 PM,15.8,6.8,68,30.27,10.0,East,12.7,-,N/A,,Overcast,80,2012-11-30 03:54:00
10:14 PM,15.8,6.8,68,30.27,10.0,ENE,12.7,-,N/A,,Overcast,70,2012-11-30 04:14:00
10:34 PM,14.0,6.8,73,30.27,3.0,ENE,12.7,-,N/A,Snow,Light Snow,70,2012-11-30 04:34:00
10:55 PM,14.0,8.6,79,30.26,3.0,East,15.0,18.4,N/A,Snow,Light Snow,90,2012-11-30 04:55:00
11:14 PM,12.2,8.6,85,30.26,1.8,East,15.0,-,N/A,Snow,Light Snow,90,2012-11-30 05:14:00
11:34 PM,12.2,8.6,85,30.25,2.0,East,13.8,-,N/A,Snow,Light Snow,80,2012-11-30 05:34:00
11:55 PM,12.2,8.6,85,30.25,1.8,East,15.0,-,N/A,Snow,Light Snow,90,2012-11-30 05:55:00